Location: ????? ???????
(25.7275°N, 32.5929°E)
Time: 11:14:25
(UTC+00:00)

IRS-P2 Rocket - Pass Details

Date: 02 March 2021
Orbit: 794 x 876 km, 99.1° (Epoch: 15 April)

Event Time Altitude Azimuth Distance (km) Brightness Sun altitude
Rises 16:40:43 0° 160° (SSE) 3,281 7.6 -11.8°
Reaches altitude 10° 16:43:03 10° 157° (SSE) 2,353 6.8 -12.3°
Maximum altitude 16:48:11 68° 75° (ENE) 854 4.5 -13.4°
Drops below altitude 10° 16:53:22 10° 353° (N) 2,376 7.1 -14.6°
Sets 16:55:44 0° 351° (N) 3,317 7.9 -15.1°
